Location: ?????????
(38.5999°N, 22.7695°E)
Time: 16:04:40
(UTC+00:00)

DELTA 2 R/B (1) - Pass Details

Date: 23 May 2024
Orbit: 789 x 801 km, 39.6° (Epoch: 23 June)

Event Time Altitude Azimuth Distance (km) Brightness Sun altitude
Exits shadow 00:26:15 36° 280° (W) 1,233 4.3 -24.4°
Maximum altitude 00:28:36 81° 4° (N) 803 3.5 -24.1°
Drops below altitude 10° 00:34:09 10° 92° (E) 2,348 6.4 -23.6°
Sets 00:36:38 0° 93° (E) 3,275 7.2 -23.3°
